sat.trackr.live / text

‹ back to catalog

STARLINK-36494

NORAD 67331 · 2026-002AC

PAYLOAD ACTIVE UNKNOWN

§ Identity

Operator
Country
US
Launch date
2026-01-04
Launch site
AFETR
Launch vehicle
Mass (kg)
RCS (m²)

Purposes: comms

External: N2YO · Heavens-Above · Gunter

§ Orbital elements

Epoch: 2026-09-19T11:06:37.047456Z

Period
94.27 min
Inclination
43.0037°
Eccentricity
0.0001787
Mean motion
15.27596795 rev/d
Perigee alt
481.8 km
Apogee alt
484.2 km
Semi-major
6,861.1 km
B*
3.4478e-4
RAAN
310.9681°
Arg perigee
282.8092°
Mean anomaly
77.2560°
Rev number
4,087

§ Raw data

STARLINK-364941 67331U 26002AC  26262.46292879  .00009242  00000+0  34478-3 0  99902 67331  43.0037 310.9681 0001787 282.8092  77.2560 15.27596795 40873

JSON: /api/v1/satellites/67331 · /tle

For live sub-satellite position, see the globe view (requires WebGL).

§ Visibility from observer

Set your observer location to see the next 7 days of passes ≥ 10°. The values pass through the URL so the page stays shareable.

No JS? Fill the form by hand. The geolocation button needs JavaScript.